www.pogodaiklimat.ru

АРХИВ ПОГОДЫ в Киеве

Время (UTC), дата Ветер
(напр.,м/с)
 
Видим.   Явления Облачность Т
(С)
Тd
(С)
f
(%)
Тe
(С)
Тes
(С)
Комфортность P
(гПа)
Po
(гПа)
Тmin
(С)
Tmax
(С)
R
(мм)
S
(см)
15 11.01 ЮВ 2 4000 м дымка 10/10 210 м
[St]
-3.2 -4.3 92 -7 -7 по сезону 1019.3 998.0
18 11.01 ЮВ 2 4000 м дымка 10/10 210 м
[St]
-2.8 -3.8 93 -7 -7 по сезону 1016.7 995.5 -2.7
21 11.01 ЮВ 3 4000 м дымка 10/10 240 м
[St]
-3.2 -4.2 93 -9 -9 по сезону 1013.8 992.6
00 12.01 ЮВ 1 2000 м слабый снег 10/10 90 м
[Frnb Ns]
-3.6 -4.4 94 -6 -6 по сезону 1009.7 988.6
03 12.01 Ю 1 2000 м слабый снег 10/10 90 м
[Frnb Ns]
-3.9 -4.4 96 -6 -6 по сезону 1006.4 985.3
06 12.01 ЮЗ 2 2000 м слабый снег 10/10 240 м
[Frnb Ns]
-3.2 -3.6 97 -7 -7 по сезону 1004.8 983.8 -4.0 2 14
09 12.01 З 4 4000 м слабый снег {туман} 10/4 330 м
[Frnb As op]
-2.7 -4.3 89 -9 -9 по сезону 1004.2 983.3
12 12.01 З 4 20 км {снег, туман} ясно -2.4 -7.9 66 -8 -7 по сезону 1003.9 983.0
15 12.01 З 3 20 км 10/4 400 м
[St Ac und]
-4.1 -8.2 73 -9 -9 прохладно 1005.4 984.3
18 12.01 З 3 20 км ясно -5.2 -8.1 80 -11 -11 прохладно 1005.8 984.6 -2.2 0.4
21 12.01 З 3 10 км 10/10 420 м
[St]
-3.7 -5.5 87 -9 -9 по сезону 1006.5 985.4
00 13.01 З 4 4000 м слабый снег 10/5 360 м
[Frnb As op]
-1.5 -2.6 92 -7 -7 по сезону 1007.7 986.8
03 13.01 З 4 4000 м дымка {снег} 9/9 600 м
[Sc]
-0.8 -2.4 89 -7 -7 по сезону 1008.5 987.6
06 13.01 З 3 4000 м дымка {снег, метель} 10/10 400 м
[St]
-1.4 -2.8 90 -6 -6 по сезону 1009.7 988.7 -5.7 0.5 14
09 13.01 ЮЗ 4 4000 м дымка 10/10 330 м
[Sc]
-2.2 -3.7 89 -8 -8 по сезону 1010.7 989.7
12 13.01 ЮЗ 3 20 км 9/0
[Ac As Cs]
-0.1 -5.6 66 -4 -4 по сезону 1010.0 989.1
15 13.01 Ю 2 10 км 9/3 600 м
[Sc Ac As]
-2.9 -5.9 80 -7 -7 по сезону 1009.5 988.4
18 13.01 Ю 3 20 км 8/0
[Ac As Cc]
-3.0 -6.4 77 -8 -8 по сезону 1007.8 986.8 +0.3
21 13.01 Ю 4 10 км 8/0
[Cc]
-4.4 -7.1 81 -11 -11 прохладно 1007.2 986.1
00 14.01 Ю 4 4000 м дымка 10/10 360 м
[St]
-1.2 -3.0 88 -7 -7 по сезону 1006.0 985.1
03 14.01 Ю 4 4000 м дымка 10/10 330 м
[St]
+1.1 -0.6 88 -4 -4 по сезону 1003.0 982.4
06 14.01 Ю 3 4000 м дымка 10/10 330 м
[Sc]
+1.6 -0.0 89 -3 -3 по сезону 1001.8 981.2 -4.9 12
09 14.01 Ю 6 10 км 10/10 330 м
[St]
+2.7 +0.9 88 -3 -3 по сезону 1000.5 980.1
12 14.01 Ю 5 10 км 10/10 400 м
[St]
+2.9 +0.8 86 -2 -2 по сезону 999.0 978.6
15 14.01 Ю 5 4000 м слабый дождь 10/10 300 м
[Sc]
+3.0 +1.5 90 -2 -2 по сезону 999.2 978.8
18 14.01 ЮЗ 4 4000 м слабый дождь 10/10 270 м
[Frnb Ns]
+2.6 +1.3 91 -2 -2 по сезону 1000.7 980.2 +3.3 0.4
21 14.01 З 5 10 км {дождь} 10/10 360 м
[Sc]
+1.3 -0.9 85 -4 -4 по сезону 1003.2 982.6
00 15.01 ЮЗ 3 10 км {дождь} 9/9 900 м
[Sc]
+0.7 -1.6 85 -4 -4 по сезону 1005.6 984.9
03 15.01 З 2 10 км 8/8 800 м
[Sc]
+0.4 -2.2 83 -3 -3 по сезону 1007.8 987.0
06 15.01 З 4 10 км 10/10 840 м
[Sc]
+0.3 -2.4 82 -5 -5 по сезону 1010.5 989.7 0.0 0.0 6
09 15.01 СЗ 3 20 км 9/9 870 м
[Sc]
+1.1 -3.8 70 -3 -3 по сезону 1013.6 992.8
12 15.01 З 3 20 км 3/3 600 м
[Sc]
+2.2 -3.8 64 -2 -1 по сезону 1014.8 994.0
15 15.01 З 2 20 км ясно -0.8 -5.0 73 -4 -4 по сезону 1017.4 996.3
18 15.01 СЗ 2 20 км ясно -2.2 -4.8 82 -6 -6 по сезону 1019.3 998.1 +2.7
21 15.01 СЗ 2 20 км ясно -3.7 -5.5 87 -8 -8 по сезону 1021.0 999.6
00 16.01 СЗ 2 4000 м дымка ясно -4.8 -5.8 93 -9 -9 по сезону 1022.3 1000.8
03 16.01 СЗ 2 4000 м дымка ясно -5.6 -6.3 95 -10 -10 по сезону 1023.2 1001.6
06 16.01 штиль 0 4000 м дымка ясно -7.1 -7.6 96 -8 -8 по сезону 1024.2 1002.5 -7.4 4
09 16.01 штиль 0 10 км ясно +0.1 -4.0 74 -1 +2 тепло 1024.9 1003.7
12 16.01 З 2 20 км 1/1 600 м
[Cu hum]
+0.8 -4.2 69 -2 -1 по сезону 1025.2 1004.1
15 16.01 штиль 0 20 км ясно -2.0 -4.8 81 -3 -3 по сезону 1025.9 1004.6
18 16.01 штиль 0 4000 м дымка ясно -4.4 -5.6 91 -6 -6 по сезону 1027.5 1005.9 +1.4
21 16.01 штиль 0 4000 м дымка ясно -5.1 -6.1 93 -6 -6 по сезону 1029.0 1007.3
00 17.01 штиль 0 1000 м дымка 8/0
[Ac trans]
-8.2 -9.2 92 -9 -9 по сезону 1030.4 1008.5
03 17.01 штиль 0 1000 м дымка 8/0
[Ac trans]
-8.9 -10.0 92 -10 -10 по сезону 1031.4 1009.4
06 17.01 штиль 0 200 м переохл. туман ?/? -7.9 -8.1 98 -9 -9 по сезону 1033.4 1011.4 -9.7
09 17.01 штиль 0 50 м переохл. туман ?/? -6.4 -6.5 99 -7 -7 по сезону 1034.7 1012.8
12 17.01 ЮВ 1 1000 м в посл. час туман 8/0
[Cs]
-2.7 -3.1 97 -5 -4 по сезону 1034.6 1013.0
15 17.01 штиль 0 50 м переохл. туман ?/? -5.6 -5.6 100 -7 -7 по сезону 1035.8 1014.0
18 17.01 штиль 0 500 м переохл. туман ?/? -6.0 -6.1 99 -7 -7 по сезону 1037.1 1015.2 -2.0
21 17.01 штиль 0 500 м переохл. туман ?/? -6.9 -7.0 99 -8 -8 по сезону 1037.8 1015.8
00 18.01 штиль 0 2000 м дымка {туман} 4/0
[Cs]
-7.7 -8.3 95 -9 -9 по сезону 1038.5 1016.4
03 18.01 штиль 0 1000 м дымка 3/0
[Cs]
-8.3 -8.5 98 -9 -9 по сезону 1038.6 1016.5
06 18.01 штиль 0 4000 м дымка 8/0
[Cc]
-8.8 -9.5 95 -9 -9 по сезону 1039.6 1017.4 -9.7 4
09 18.01 штиль 0 10 км 4/0
[Cc]
-4.8 -6.5 88 -6 -3 по сезону 1040.6 1018.7
12 18.01 В 1 20 км 3/0
[Ci fib]
-1.7 -7.4 65 -3 -2 по сезону 1039.7 1018.1

 

Местоположение метеостанции Киев (город Киев, Украина): широта 50.40 долгота 30.57 высота над уровнем моря 167 м.

В архиве по умолчанию представлена погода в Киеве за последнюю неделю. Архивные данные за месяц целиком и за предыдущие месяцы, начиная с января 2011 года, Вы можете получить, выбрав интересующий диапазон дат из раскрывающегося списка и нажав кнопку "Ввод!".

Внимание! Время в таблицах - всемирное. Для получения местного времени необходимо прибавить поправку, которая в Киеве равна 2 ч.

Ветер - указаны скорость ветра в м/с - средняя за 10 мин, порывы в срок и между сроками (в фигурных скобках) и направление, откуда дует ветер: С - северный, СВ - северо-восточный, В - восточный, ЮВ - юго-восточный, Ю - южный, ЮЗ - юго-западный, З - западный, СЗ - северо-западный.
Видимость - горизонтальная дальность видимости в метрах или километрах. При видимости от 1 до 10 км при отсутствии осадков обычно наблюдается дымка, при ухудшении видимости до 1 км и менее - туман. В сухую погоду видимость может ухудшаться дымом, пылью или мглою.
Явления - указаны атмосферные явления, наблюдавшиеся в срок или в последний час перед сроком; фигурными скобками обозначены явления, наблюдавшиеся между сроками (за 1-3 часа до срока); квадратными скобками обозначены град или гололедные отложения с указанием их диаметра в мм.
Облачность - указаны через наклонную черту общая и нижняя облачность в баллах и высота нижней границы облаков в метрах; квадратными скобками обозначены формы облаков: Ci - перистые, Cs - перисто-слоистые, Cc - перисто-кучевые, Ac - высококучевые, As - высокослоистые, Sc - слоисто-кучевые, Ns - слоисто-дождевые, Cu - кучевые, Cb - кучево-дождевые. Подробнее классификацию облаков см. в Атласе облаков (PDF).
T - Температура воздуха - температура, измеренная на высоте 2 м над землей.
Td - Температура точки росы - температура, при понижении до которой содержащийся в воздухе водяной пар достигнет насыщения.
f - Относительная влажность воздуха - влажноcть воздуха, измеренная на высоте 2 м над землей.
Te - Эффективная температура - температура, которую ощущает одетый по сезону человек в тени. Характеристика душности погоды. При расчете учитывается влияние влажности воздуха и скорости ветра на теплоощущения человека.
Tes - Эффективная температура на солнце - температура, которую ощущает человек, с поправкой на солнечный нагрев. Характеристика знойности погоды. Зависит от высоты солнца над горизонтом, облачности и скорости ветра. Ночью, в пасмурную погоду, а также при ветре 12 м/с и более поправка равна нулю.
P - Атмосферное давление - приведенное к уровню моря атмосферное давление.
Po - Атмосферное давление - измеренное на уровне метеостанции атмосферное давление.
Tmin - Минимальная температура - минимум температуры воздуха на высоте 2 м над землей.
Tmax - Максимальная температура - максимум температуры воздуха на высоте 2 м над землей.
R - Количество осадков - Количество выпавших осадков, мм. При наведении курсора мыши на число - период времени, за который выпало указанное количество осадков.
S - Снежный покров - Высота снежного покрова, см. При наведении курсора мыши на число - состояние снежного покрова и степень покрытия местности в баллах.